Location: Unspecified
(35.6961°N, 0.0000°E)
Time: 01:11:25
(UTC+00:00)

Altair - Pass Details

Date: 26 May 2019
Orbit: 1501 x 1683 km, 47.2° (Epoch: 16 June)

Event Time Altitude Azimuth Distance (km) Brightness Sun altitude
Rises 23:32:36 0° 171° (S) 4,815 - -32.8°
Reaches altitude 10° 23:37:59 10° 147° (SSE) 3,871 - -32.9°
Maximum altitude 23:42:14 14° 121° (ESE) 3,618 - -33.0°
Exits shadow 23:44:45 12° 105° (ESE) 3,732 9.3 -33.0°
Drops below altitude 10° 23:46:31 10° 95° (E) 3,923 9.5 -33.0°
Sets 23:51:59 0° 72° (ENE) 4,932 10.3 -33.1°
